Weather History for Fort Stockton, TX

Change the Weather History Date:

Friday, December 16, 2011

  Actual Average Record
Temperature  
Mean Temperature 42 °F -  
Max Temperature 48 °F 59 °F 82 °F (2006)
Min Temperature 37 °F 34 °F 27 °F (2007)
Degree Days  
Heating Degree Days 22    
Moisture  
Dew Point 33 °F    
Average Humidity 69    
Maximum Humidity 83    
Minimum Humidity 54    
Precipitation  
Precipitation 0.00 in - - ()
Sea Level Pressure  
Sea Level Pressure 30.32 in    
Wind  
Wind Speed 4 mph (North)    
Max Wind Speed 8 mph    
Max Gust Speed -    
Visibility 10 miles    
Events      
Averages and records for this station are not official NWS values.
T = Trace of Precipitation, MM = Missing Value Source: NWS Daily Summary

Daily Weather History Graph

Daily Weather History Graph

Search for Another Location

Airport:

Trip Planner

Search our weather history database for the weather conditions in past years. The results will help you decide how hot, cold, wet, or windy it might be!

Date:

Astronomy

Dec. 16, 2011 Rise Set
Actual Time 7:42 AM CST 5:51 PM CST
Civil Twilight 7:15 AM CST 6:18 PM CST
Nautical Twilight 6:45 AM CST 6:48 PM CST
Astronomical Twilight 6:16 AM CST 7:18 PM CST
Moon No Moon Rise 11:50 AM CST (12/16)
Length of Visible Light 11h 02m
Length of Day
10h 09m
Waning Gibbous, 64% of the Moon is Illuminated
Dec 16
Waning Gibbous
Dec 17
Last Quarter
Dec 24
New
Jan 1
First Quarter
Jan 9
Full

Hourly Weather History & Observations

Time (CST) Temp. Windchill Dew Point Humidity Pressure Visibility Wind Dir Wind Speed Gust Speed Precip Events Conditions
12:53 AM 39.9 °F 35.1 °F 33.1 °F 77% 30.23 in 10.0 mi NE 6.9 mph - N/A   Partly Cloudy
1:25 AM 37.4 °F 33.8 °F 32.0 °F 81% 30.27 in 10.0 mi NE 4.6 mph - N/A   Mostly Cloudy
1:53 AM 37.9 °F - 33.1 °F 83% 30.23 in 10.0 mi Calm Calm - N/A   Overcast
2:53 AM 39.0 °F - 33.1 °F 79% 30.22 in 10.0 mi Calm Calm - N/A   Mostly Cloudy
3:08 AM 37.4 °F - 32.0 °F 81% 30.27 in 10.0 mi Calm Calm - N/A   Scattered Clouds
3:36 AM 37.4 °F - 32.0 °F 81% 30.28 in 10.0 mi Calm Calm - N/A   Mostly Cloudy
4:41 AM 37.4 °F 32.8 °F 32.0 °F 81% 30.29 in 10.0 mi North 5.8 mph - N/A   Overcast
4:53 AM 37.9 °F 33.5 °F 32.0 °F 79% 30.24 in 10.0 mi North 5.8 mph - N/A   Overcast
5:53 AM 37.9 °F 34.4 °F 32.0 °F 79% 30.25 in 10.0 mi North 4.6 mph - N/A   Overcast
6:53 AM 37.9 °F - 32.0 °F 79% 30.27 in 10.0 mi Calm Calm - N/A   Overcast
7:53 AM 37.9 °F 35.5 °F 32.0 °F 79% 30.30 in 10.0 mi NNE 3.5 mph - N/A   Overcast
8:53 AM 37.9 °F 34.4 °F 32.0 °F 79% 30.32 in 10.0 mi NE 4.6 mph - N/A   Overcast
9:53 AM 39.0 °F 34.8 °F 32.0 °F 76% 30.34 in 10.0 mi NNE 5.8 mph - N/A   Overcast
10:50 AM 41.0 °F 38.0 °F 32.0 °F 70% 30.39 in 10.0 mi NE 4.6 mph - N/A   Overcast
10:53 AM 41.0 °F 38.0 °F 32.0 °F 70% 30.35 in 10.0 mi NNE 4.6 mph - N/A   Overcast
11:29 AM 42.8 °F - 32.0 °F 66% 30.39 in - North - - N/A   Unknown
11:53 AM - - - N/A% 30.38 in - North - - N/A   Unknown
12:49 PM 44.6 °F 41.4 °F 32.0 °F 61% 30.36 in 10.0 mi Variable 5.8 mph - N/A   Overcast
12:53 PM 45.0 °F 41.2 °F 32.0 °F 60% 30.33 in 10.0 mi North 6.9 mph - N/A   Overcast
1:53 PM 46.0 °F 43.9 °F 32.0 °F 58% 30.31 in 10.0 mi North 4.6 mph - N/A   Overcast
2:53 PM 46.9 °F - 32.0 °F 56% 30.30 in 10.0 mi North 8.1 mph - N/A   Overcast
3:53 PM 46.9 °F - 32.0 °F 56% 30.30 in 10.0 mi NNE 6.9 mph - N/A   Overcast
4:07 PM 48.2 °F - 32.0 °F 54% 30.34 in 10.0 mi NNE 8.1 mph - N/A   Overcast
4:53 PM 48.0 °F - 32.0 °F 54% 30.32 in 10.0 mi NNE 5.8 mph - N/A   Overcast
5:53 PM 48.0 °F - 32.0 °F 54% 30.33 in 10.0 mi Calm Calm - N/A   Overcast
6:53 PM 46.0 °F - 34.0 °F 63% 30.35 in 10.0 mi Calm Calm - N/A   Overcast
7:53 PM 46.0 °F 44.8 °F 34.0 °F 63% 30.37 in 10.0 mi NW 3.5 mph - N/A   Overcast
8:53 PM 46.0 °F 44.8 °F 35.1 °F 66% 30.38 in 10.0 mi NW 3.5 mph - N/A   Overcast
9:53 PM 46.0 °F 43.1 °F 34.0 °F 63% 30.40 in 10.0 mi NW 5.8 mph - N/A   Overcast
10:53 PM 45.0 °F 41.8 °F 34.0 °F 65% 30.40 in 10.0 mi NW 5.8 mph - N/A   Overcast
11:53 PM 44.1 °F - 34.0 °F 68% 30.44 in 10.0 mi Calm Calm - N/A   Overcast